Weather History for East Midlands, United Kingdom

Change the Weather History Date:

Wednesday, August 28, 2013

  Actual Average Record
Temperature  
Mean Temperature 61 °F -  
Max Temperature 71 °F 63 °F 73 °F (1999)
Min Temperature 51 °F 49 °F 44 °F (2001)
Degree Days  
Heating Degree Days 4    
Growing Degree Days 11 (Base 50)    
Moisture  
Dew Point 56 °F    
Average Humidity 82    
Maximum Humidity 100    
Minimum Humidity 60    
Precipitation  
Precipitation 0.00 in - - ()
Sea Level Pressure  
Sea Level Pressure 30.19 in    
Wind  
Wind Speed 6 mph ()    
Max Wind Speed 14 mph    
Max Gust Speed -    
Visibility 4.9 miles    
Events      
Averages and records for this station are not official NWS values.
T = Trace of Precipitation, MM = Missing Value Source: Averaged Metar Reports

Daily Weather History Graph

Daily Weather History Graph

Search for Another Location

Airport:

Trip Planner

Search our weather history database for the weather conditions in past years. The results will help you decide how hot, cold, wet, or windy it might be!

Date:

Astronomy

Aug. 28, 2013 Rise Set
Actual Time 6:08 AM BST 8:02 PM BST
Civil Twilight 5:32 AM BST 8:39 PM BST
Nautical Twilight 4:46 AM BST 9:24 PM BST
Astronomical Twilight 3:54 AM BST 10:16 PM BST
Moon 11:27 PM BST 2:50 PM BST
Length of Visible Light 15h 07m
Length of Day
13h 53m
Waning Gibbous, 49% of the Moon is Illuminated
Aug 28
Waning Gibbous
Sep 5
New
Sep 12
First Quarter
Sep 19
Full
Sep 27
Last Quarter

Hourly Weather History & Observations

Time (BST) Temp. Dew Point Humidity Pressure Visibility Wind Dir Wind Speed Gust Speed Precip Events Conditions
12:20 AM 57.2 °F 53.6 °F 88% 30.15 in - WNW 6.9 mph - N/A   Clear
12:50 AM 57.2 °F 55.4 °F 94% 30.15 in - WNW 8.1 mph - N/A   Clear
1:20 AM 57.2 °F 53.6 °F 88% 30.15 in - WNW 8.1 mph - N/A   Clear
1:50 AM 55.4 °F 53.6 °F 94% 30.15 in - WNW 6.9 mph - N/A   Clear
2:20 AM 55.4 °F 53.6 °F 94% 30.15 in - WNW 8.1 mph - N/A   Clear
2:50 AM 55.4 °F 53.6 °F 94% 30.18 in - NW 5.8 mph - N/A   Clear
3:20 AM 53.6 °F 51.8 °F 94% 30.18 in - West 6.9 mph - N/A   Clear
3:50 AM 55.4 °F 53.6 °F 94% 30.18 in - WNW 4.6 mph - N/A   Clear
4:20 AM 51.8 °F 51.8 °F 100% 30.18 in - West 4.6 mph - N/A   Clear
4:50 AM 53.6 °F 53.6 °F 100% 30.18 in 5.0 mi WNW 4.6 mph - N/A   Unknown
5:20 AM 55.4 °F 55.4 °F 100% 30.18 in 4.3 mi WNW 6.9 mph - N/A   Scattered Clouds
5:50 AM 55.4 °F 55.4 °F 100% 30.18 in 3.1 mi West 5.8 mph - N/A   Mostly Cloudy
6:20 AM 55.4 °F 55.4 °F 100% 30.18 in 3.1 mi NW 4.6 mph - N/A   Mostly Cloudy
6:50 AM 57.2 °F 55.4 °F 94% 30.21 in 3.1 mi WNW 3.5 mph - N/A   Partly Cloudy
7:20 AM 57.2 °F 55.4 °F 94% 30.21 in 3.1 mi WNW 3.5 mph - N/A   Partly Cloudy
7:50 AM 57.2 °F 55.4 °F 94% 30.21 in 3.1 mi West 3.5 mph - N/A   Partly Cloudy
8:20 AM 59.0 °F 57.2 °F 94% 30.21 in 3.1 mi Variable 3.5 mph - N/A   Partly Cloudy
8:50 AM 60.8 °F 57.2 °F 88% 30.21 in 3.1 mi West 5.8 mph - N/A   Haze
9:20 AM 62.6 °F 57.2 °F 82% 30.21 in 3.7 mi WNW 4.6 mph - N/A   Scattered Clouds
9:50 AM 62.6 °F 59.0 °F 88% 30.21 in 3.7 mi WNW 5.8 mph - N/A   Scattered Clouds
10:20 AM 62.6 °F 57.2 °F 82% 30.21 in 4.3 mi West 4.6 mph - N/A   Scattered Clouds
10:50 AM 64.4 °F 57.2 °F 77% 30.21 in 5.0 mi NW 5.8 mph - N/A   Scattered Clouds
11:20 AM 66.2 °F 57.2 °F 73% 30.21 in 5.6 mi Variable 3.5 mph - N/A   Scattered Clouds
11:50 AM 68.0 °F 55.4 °F 64% 30.21 in 5.6 mi Variable 3.5 mph - N/A   Partly Cloudy
12:20 PM 68.0 °F 57.2 °F 68% 30.21 in 6.2 mi Variable 3.5 mph - N/A   Partly Cloudy
12:50 PM 69.8 °F 55.4 °F 60% 30.21 in 6.2 mi Variable 4.6 mph - N/A   Scattered Clouds
1:20 PM 69.8 °F 57.2 °F 64% 30.21 in 6.2 mi West 4.6 mph - N/A   Scattered Clouds
1:50 PM 71.6 °F 59.0 °F 64% 30.21 in 6.2 mi WNW 6.9 mph - N/A   Scattered Clouds
2:20 PM 71.6 °F 59.0 °F 64% 30.21 in 6.2 mi West 8.1 mph - N/A   Scattered Clouds
3:20 PM 68.0 °F 57.2 °F 68% 30.18 in 6.2 mi WNW 12.7 mph - N/A   Scattered Clouds
3:50 PM 69.8 °F 57.2 °F 64% 30.18 in 6.2 mi WNW 12.7 mph - N/A   Scattered Clouds
4:50 PM 68.0 °F 57.2 °F 68% 30.18 in - WNW 13.8 mph - N/A   Clear
5:20 PM 66.2 °F 57.2 °F 73% 30.18 in - WNW 11.5 mph - N/A   Clear
5:50 PM 66.2 °F 55.4 °F 68% 30.18 in - WNW 10.4 mph - N/A   Clear
6:20 PM 64.4 °F 55.4 °F 73% 30.18 in - WNW 8.1 mph - N/A   Clear
6:50 PM 64.4 °F 55.4 °F 73% 30.18 in - WNW 6.9 mph - N/A   Clear
7:20 PM 64.4 °F 55.4 °F 73% 30.18 in - WNW 4.6 mph - N/A   Clear
7:50 PM 62.6 °F 55.4 °F 77% 30.18 in - WNW 3.5 mph - N/A   Clear
8:20 PM 62.6 °F 55.4 °F 77% 30.18 in - WNW 3.5 mph - N/A   Clear
8:50 PM 60.8 °F 53.6 °F 77% 30.18 in - West 3.5 mph - N/A   Clear
9:20 PM 60.8 °F 53.6 °F 77% 30.18 in - West 3.5 mph - N/A   Clear
9:50 PM 60.8 °F 53.6 °F 77% 30.18 in 6.2 mi West 4.6 mph - N/A   Partly Cloudy
10:20 PM 60.8 °F 55.4 °F 82% 30.18 in 6.2 mi WNW 4.6 mph - N/A   Partly Cloudy
10:50 PM 60.8 °F 55.4 °F 82% 30.18 in 6.2 mi WNW 8.1 mph - N/A   Partly Cloudy
11:50 PM 57.2 °F 53.6 °F 88% 30.18 in 6.2 mi Calm Calm - N/A   Partly Cloudy